"Pseudo-MPEC" for P20OVuW

Created 2019 Jun 15 19:09:48 UT using Find_Orb

Click here for an explanation of pseudo-MPECs

 
 Astrometry: 
     P20OVuW  C2019 06 10ZYk+uAstrometry/abQqd;jtDW3(R:_P=!\-kVv^y1rjpmSX/*)sF52
     P20OVuW  C2019 06 10EMmC^[6u?fl@HTeY*JX;BfiVxx`[q`/?]m=^O\JB#MvB`lvh@bWPF52
     P20OVuW  C2019 06 10:Uku'Q^hR,jOh:KEAGh'(4y$#t@4JZD;/KFnK5%Aj.c^Z/[wace;F52
     P20OVuW  C2019 06 10AB5;W9O!/_US+DSd?wr)[,l;hCW+.rMQ-Bbr=/Ww?d(cqF]n@)%fF52
     P20OVuW KC2019 06 13Em/RqtYH[d[t'kQ$0;`M2,dZ%*c*p.QYd)Q8cyseU9Ej$d_d7KKV691
     P20OVuW KC2019 06 13+P`n41WejunA41u-P9i^p3ZL'LwR(\\h+pSb[D])eKo`YyyOi8FV691
     P20OVuW KC2019 06 13TZ)5,Zg4=#WHs0d..!8tMaZ``45)L5`ZpCp#7kt;v4f`wuiICP))691
     P20OVuW  C2019 06 13jqrtCb4$XWN44eY/5+oVFl+5T_e7BU/n),V=dht8W/$jr^WS6WyAF52
     P20OVuW  C2019 06 13s4O2S@TcO#l630^m3GK#s/redacted;)Q=sbclickp:6_CHldWUmF52
     P20OVuW  C2019 06 13Z)G2^IJQ\rV:k?Cv6=_-1uFUw8sTHfhJp66T9`_PXoj$4gK^92phF52
     P20OVuW  C2019 06 13X%fJxtrd=v4S2BFs[P+P@c?bDFWVpFhOflM`el#aZ0N#1G^a,i\pF52
     P20OVuW KC2019 06 14.Dhereh,jE;E*j1PrLod)1xn_!%`:fF]HEl*Q7*mR)QBo':AwXJ.H21
     P20OVuW KC2019 06 141rG2w-dS=fJb3.9Jl`Vv7xksm2p%6X6/%#`f)$?!kCc$RW(D=^tUH21
     P20OVuW KC2019 06 146eN)Qx/B0y+ikU`forpNa;rJ?$'!y_w.ub6Y:4B6xAAgx2B^\JywH21
     P20OVuW KC2019 06 14B#pF_qI^0l`b(?Vpaln\explanationg5ZWr6[qh$u^$Z0'r@'dD691
     P20OVuW KC2019 06 14FE`Gdw4yWh0PYk!GIP+N0;/(6kF5li.VjLSYKeG[o'p'P!3X1(Bn691

Station data:
(691) Steward Observatory, Kitt Peak - Spacewatch  (N31.962174 W111.600327)
   US/Arizona.  Observer J. V. Scotti. 0.9-m f/3 reflector + CCD.
(F52) Pan-STARRS 2, Haleakala  (N20.707384 W156.255910)  US/Hawaii. 1.8-m
   Ritchey-Chrétien + CCD.
(H21) Astronomical Research Observatory, Westfield  (N39.483057 W87.968270)
   US/Illinois. 0.76-m f/3.0 astrograph + CCD.

Orbital elements:  P20OVuW
   Perihelion 2019 Jul 11.189485 +/- 10.9 TT =  4:32:51 (JD 2458675.689485)
Epoch 2019 Jun 14.0 TT = JDT 2458648.5   Earth MOID: 0.5423   AutoNEOCP
M 351.40572707 +/- 4.4              (J2000 ecliptic)
n   0.31608810 +/- 0.062            Peri.  107.24660 +/- 9
a   2.13434166 +/- 0.279            Node   190.73745 +/- 4.1
e   0.2772756 +/- 0.0741            Incl.    6.25825 +/- 0.26
P   3.12                   H 19.2   G  0.15   U 10.9  
q 1.54254060 +/- 0.0502    Q 2.72614272 +/- 0.592
From 16 observations 2019 June 10-14; mean residual 0".26
Residuals in arcseconds: 
190610 F52  .12-  .00     190613 691  .25-  .13-    190614 H21  .46+  .25+    
190610 F52  .09-  .15-    190613 F52  .17+  .37-    190614 H21  .57-  .04+    
190610 F52  .01+  .14+    190613 F52  .03-  .21-    190614 691  .11+  .10+    
190610 F52  .15+  .07+    190613 F52  .19+  .13-    190614 691  .35+  .12-    
190613 691  .29+  .67+    190613 F52  .23+  .05-    
190613 691  .29-  .18-    190614 H21  .53-  .02+    

Ephemerides (geocentric):
Date (UTC) HH   RA              Dec         delta   r     elong  mag " sig PA
---- -- -- --  -------------   -----------  ------ ------ -----  --- ---- ---
2019 06 15 19  20 45 57.246   -03 21 41.49  .69418 1.5536 129.7 20.7 2.28 148
2019 06 15 20  20 45 59.232   -03 21 16.89  .69394 1.5535 129.7 20.7 2.34 147
2019 06 15 21  20 46 01.215   -03 20 52.31  .69370 1.5535 129.7 20.7 2.39 147
2019 06 15 22  20 46 03.195   -03 20 27.75  .69347 1.5535 129.7 20.7 2.44 147
2019 06 15 23  20 46 05.171   -03 20 03.22  .69323 1.5534 129.8 20.7 2.50 146
2019 06 16 00  20 46 07.144   -03 19 38.71  .69299 1.5534 129.8 20.7 2.56 146
2019 06 16 01  20 46 09.113   -03 19 14.21  .69275 1.5534 129.8 20.7 2.61 145
2019 06 16 02  20 46 11.079   -03 18 49.74  .69252 1.5533 129.8 20.7 2.67 145
2019 06 16 03  20 46 13.041   -03 18 25.29  .69228 1.5533 129.9 20.7 2.73 144
2019 06 16 04  20 46 15.000   -03 18 00.86  .69204 1.5533 129.9 20.7 2.79 144
2019 06 16 05  20 46 16.955   -03 17 36.45  .69181 1.5532 129.9 20.7 2.85 143
2019 06 16 06  20 46 18.907   -03 17 12.06  .69157 1.5532 130.0 20.7 2.91 143
2019 06 16 07  20 46 20.855   -03 16 47.70  .69133 1.5532 130.0 20.7 2.98 143
2019 06 16 08  20 46 22.800   -03 16 23.35  .69110 1.5531 130.0 20.7 3.04 142
2019 06 16 09  20 46 24.741   -03 15 59.03  .69086 1.5531 130.0 20.7 3.10 142
2019 06 16 10  20 46 26.679   -03 15 34.73  .69063 1.5530 130.1 20.7 3.17 142
2019 06 16 11  20 46 28.613   -03 15 10.45  .69039 1.5530 130.1 20.7 3.23 141
2019 06 16 12  20 46 30.544   -03 14 46.19  .69016 1.5530 130.1 20.7 3.30 141
2019 06 16 13  20 46 32.472   -03 14 21.95  .68992 1.5529 130.1 20.7 3.37 140
2019 06 16 14  20 46 34.395   -03 13 57.74  .68969 1.5529 130.2 20.7 3.44 140
2019 06 16 15  20 46 36.316   -03 13 33.55  .68945 1.5529 130.2 20.7 3.51 140
2019 06 16 16  20 46 38.233   -03 13 09.37  .68922 1.5528 130.2 20.7 3.58 139
2019 06 16 17  20 46 40.146   -03 12 45.22  .68898 1.5528 130.3 20.7 3.65 139
2019 06 16 18  20 46 42.056   -03 12 21.09  .68875 1.5528 130.3 20.7 3.72 139
2019 06 16 19  20 46 43.962   -03 11 56.99  .68851 1.5527 130.3 20.7 3.79 138
2019 06 16 20  20 46 45.865   -03 11 32.90  .68828 1.5527 130.3 20.7 3.87 138
2019 06 16 21  20 46 47.765   -03 11 08.84  .68805 1.5527 130.4 20.7 3.94 138
2019 06 16 22  20 46 49.661   -03 10 44.80  .68781 1.5526 130.4 20.7 4.02 138
2019 06 16 23  20 46 51.553   -03 10 20.78  .68758 1.5526 130.4 20.7 4.09 137
2019 06 17 00  20 46 53.442   -03 09 56.78  .68735 1.5526 130.4 20.7 4.17 137
2019 06 17 01  20 46 55.327   -03 09 32.81  .68711 1.5525 130.5 20.7 4.25 137
2019 06 17 02  20 46 57.209   -03 09 08.86  .68688 1.5525 130.5 20.7 4.33 136
2019 06 17 03  20 46 59.087   -03 08 44.92  .68665 1.5525 130.5 20.7 4.40 136
2019 06 17 04  20 47 00.962   -03 08 21.02  .68641 1.5524 130.6 20.7 4.49 136
2019 06 17 05  20 47 02.834   -03 07 57.13  .68618 1.5524 130.6 20.7 4.57 136
2019 06 17 06  20 47 04.701   -03 07 33.27  .68595 1.5524 130.6 20.7 4.65 135
2019 06 17 07  20 47 06.566   -03 07 09.42  .68572 1.5523 130.6 20.7 4.73 135
2019 06 17 08  20 47 08.426   -03 06 45.60  .68548 1.5523 130.7 20.7 4.82 135
2019 06 17 09  20 47 10.284   -03 06 21.81  .68525 1.5523 130.7 20.7 4.90 134
2019 06 17 10  20 47 12.137   -03 05 58.03  .68502 1.5522 130.7 20.6 4.99 134
2019 06 17 11  20 47 13.987   -03 05 34.28  .68479 1.5522 130.8 20.6 5.07 134
2019 06 17 12  20 47 15.834   -03 05 10.55  .68456 1.5522 130.8 20.6 5.16 134
2019 06 17 13  20 47 17.677   -03 04 46.84  .68433 1.5521 130.8 20.6 5.25 133
2019 06 17 14  20 47 19.517   -03 04 23.16  .68409 1.5521 130.8 20.6 5.34 133
2019 06 17 15  20 47 21.353   -03 03 59.50  .68386 1.5521 130.9 20.6 5.43 133
2019 06 17 16  20 47 23.185   -03 03 35.86  .68363 1.5520 130.9 20.6 5.52 133
2019 06 17 17  20 47 25.014   -03 03 12.24  .68340 1.5520 130.9 20.6 5.62 132
2019 06 17 18  20 47 26.839   -03 02 48.65  .68317 1.5520 130.9 20.6 5.71 132